Preview of NWS' New Version of Forecast
This preview is not operational and should not be used for support decisions.

Regional Weather Roundup (RWR)

Issued by National Weather Service (NWS)

                            
000
ASUS44 KMEG 222300
RWRTN 
TENNESSEE HOURLY STATE WEATHER ROUNDUP
NATIONAL WEATHER SERVICE MEMPHIS TN
600 PM CDT WED MAY 22 2019

TNZ002-004-019-021-049-052-054-088>092-230000-
WEST TENNESSEE
  
CITY           SKY/WX    TMP DP  RH WIND       PRES   REMARKS
MEMPHIS INTL   FAIR      87  72  60 S15       29.95F HX  93           
NWS MEMPHIS      N/A     89 N/A N/A MISG        N/A                   
JACKSON        FAIR      86  72  62 S9        29.98R HX  92           
DYERSBURG      FAIR      86  74  67 VRB5      29.96S HX  94           
$$

TNZ008-025-027-028-033-062-065-066-230000-
NORTH MIDDLE TENNESSEE
  
CITY           SKY/WX    TMP DP  RH WIND       PRES   REMARKS
NASHVILLE      FAIR      89  62  40 S12       30.03S                  
CLARKSVILLE    FAIR      84  71  65 VRB5      29.99F                  
SMYRNA         FAIR      88  65  46 S12G17    30.03F HX  90           
CROSSVILLE     FAIR      82  59  45 VRB5      30.14S                  
$$

TNZ061-075-076-078-094-096-097-230000-
SOUTH MIDDLE TENNESSEE
  
CITY           SKY/WX    TMP DP  RH WIND       PRES   REMARKS
$$

TNZ017-018-042-046-047-230000-
NORTHEAST TENNESSEE
  
CITY           SKY/WX    TMP DP  RH WIND       PRES   REMARKS
TRI CITIES     PTSUNNY   84  65  52 S9        30.12R                  
$$

TNZ012-013-036-069-073-074-230000-
CENTRAL EAST TENNESSEE
  
CITY           SKY/WX    TMP DP  RH WIND       PRES   REMARKS
KNOXVILLE      FAIR      87  61  41 SW13      30.08R                  
OAK RIDGE      FAIR      88  62  41 VRB3      30.10S                  
$$

TNZ083-085-099-230000-
SOUTHEAST TENNESSEE
  
CITY           SKY/WX    TMP DP  RH WIND       PRES   REMARKS
CHATTANOOGA    FAIR      90  60  36 S10       30.08S                  
$$

SKY/WX REPORTED AS FAIR MEANS FEW OR NO CLOUDS BELOW
12 THOUSAND FEET.